Wind_Speed
45 45 46 47 48 48 49 49 50 50 50 50 50 51 51 52 52 52 52 52 53 54 55 54 54 55 55 55 56 56 55 55 55 54 54 54 54 54 55 56 56 55 56
45 45 46 47 47 48 48 49 49 49 50 50 50 50 51 51 51 51 51 51 51 52 52 54 54 54 54 54 55 55 54 54 55 53 53 53 54 55 55 56 56 54 55
45 45 46 47 47 47 48 49 49 49 50 50 51 50 50 50 50 50 50 50 50 51 51 51 52 53 52 53 53 53 53 53 54 54 53 52 53 55 55 55 55 54 54
45 46 46 47 47 47 48 49 50 51 50 50 50 49 49 49 49 49 49 49 49 50 50 50 51 52 51 51 51 52 52 52 52 52 52 52 53 53 54 54 55 55 54
46 46 46 47 47 48 49 50 50 51 51 51 49 48 48 48 48 48 47 47 48 48 48 48 49 50 50 49 49 50 50 51 51 51 51 51 51 52 51 53 54 54 55
46 47 47 47 48 49 49 50 50 50 50 50 49 48 48 47 47 47 47 47 46 46 46 47 46 47 47 47 47 48 49 49 49 49 49 49 49 51 51 52 53 54 53
47 47 47 48 49 49 49 49 49 49 49 49 49 48 47 47 47 47 46 46 45 45 45 44 44 44 44 44 45 46 46 47 48 47 48 49 50 50 50 50 51 52 52
46 46 46 47 47 47 47 47 47 47 47 47 47 46 46 45 45 45 44 44 43 42 42 41 41 42 43 43 43 43 45 46 46 46 47 48 48 49 50 51 50 50 51
45 45 45 45 46 46 46 46 45 45 45 45 45 45 45 44 43 43 42 42 41 40 40 40 40 40 42 43 42 42 43 44 45 46 47 47 48 48 48 49 49 49 49
43 44 44 44 44 44 43 43 43 43 43 43 43 43 42 42 41 40 40 39 39 39 39 39 39 39 39 41 42 42 42 43 44 46 46 46 46 47 47 47 48 48 48
42 42 42 43 43 43 42 41 41 41 41 41 40 39 39 39 38 38 37 37 37 38 38 39 39 38 38 40 41 42 42 43 44 44 45 45 46 46 46 46 46 47 47
41 41 41 41 41 40 40 39 39 39 38 38 38 37 36 36 36 36 36 36 36 36 37 37 38 38 38 39 40 41 41 42 42 42 43 44 44 45 45 46 45 45 45
40 39 39 39 39 38 38 37 37 37 36 35 35 34 34 34 34 34 34 35 35 35 35 35 36 36 36 37 39 40 40 40 41 41 42 42 43 43 44 45 44 44 44
38 38 37 37 37 36 36 36 36 35 35 34 33 32 32 33 33 33 33 33 33 33 34 34 35 35 35 36 37 38 39 40 40 39 40 41 42 43 43 44 44 43 44
38 37 37 36 36 35 35 35 35 34 34 33 31 31 32 32 32 32 32 32 32 32 32 33 34 35 35 36 36 37 38 39 39 39 38 39 41 41 42 43 43 43 43
37 36 36 36 35 34 34 33 33 32 32 31 31 31 30 30 30 31 31 31 31 32 32 32 33 34 34 35 35 36 37 38 39 38 38 39 40 41 41 42 43 43 42
36 35 35 34 34 33 32 32 31 31 30 30 30 30 29 29 30 30 30 30 30 31 31 31 32 33 33 33 34 35 36 37 37 38 38 38 38 39 40 40 41 42 42
33 34 33 33 32 32 31 30 30 29 29 29 29 29 29 29 29 29 29 29 29 30 30 31 31 32 33 33 33 33 34 35 37 37 37 37 38 38 39 40 41 41 41
32 32 32 31 31 30 29 29 29 28 27 27 27 27 27 28 28 28 28 28 28 28 29 30 30 31 32 32 32 33 33 34 36 36 37 37 37 37 38 40 40 41 40
31 30 30 29 29 28 28 28 28 27 26 26 26 26 26 27 27 27 27 27 27 28 28 29 29 30 31 31 32 32 33 34 34 35 35 36 36 36 37 38 39 39 39
29 28 28 28 27 27 27 27 27 27 26 26 26 27 27 27 26 26 26 26 26 26 27 27 28 28 29 30 30 31 32 33 33 34 34 34 34 34 35 36 37 38 39
28 27 27 26 26 26 27 27 27 26 26 26 27 27 27 26 25 25 24 24 25 25 26 26 26 27 27 29 29 30 31 32 33 34 33 33 34 34 34 35 36 37 37
26 26 25 25 25 25 25 26 26 26 26 26 26 26 25 25 24 23 23 22 23 23 24 24 24 25 25 26 27 28 29 30 31 32 33 33 33 34 34 34 35 36 36
24 24 24 24 24 24 24 25 25 25 25 25 24 24 24 23 22 22 22 21 21 21 21 22 23 23 23 25 26 26 27 28 29 30 31 31 32 32 32 33 33 33 34
23 24 24 24 24 24 24 25 24 24 24 24 24 23 23 23 22 21 21 21 20 20 20 21 21 22 22 23 24 25 25 26 27 29 29 29 30 30 30 31 31 32 32
23 23 23 23 23 24 24 24 23 23 23 23 23 23 22 21 21 21 20 20 20 20 20 20 21 21 21 22 22 23 24 25 26 27 28 28 29 29 29 30 30 30 30
Wind_Direction
282 282 282 281 281 281 282 282 282 282 282 283 282 282 280 279 276 274 272 270 267 265 263 262 262 261 260 259 259 257 256 256 253 250 249 248 247 246 246 245 244 244 243
282 282 282 282 282 282 283 283 283 283 283 283 283 283 281 279 277 275 272 270 268 267 265 263 262 262 261 259 258 256 256 254 251 248 248 247 247 246 246 245 244 244 243
283 283 283 283 283 283 283 283 283 283 283 284 284 283 281 279 277 276 273 271 269 267 266 264 263 262 261 259 257 255 254 253 251 249 248 248 247 247 246 246 245 244 244
284 284 284 283 283 283 283 283 283 284 284 284 284 283 282 280 278 276 273 271 270 269 267 265 264 261 260 259 256 253 253 251 249 249 248 247 246 246 246 246 245 245 245
284 284 284 284 284 284 284 284 284 284 284 284 283 282 281 280 277 276 274 273 271 270 268 265 263 261 259 257 255 252 251 250 248 247 246 246 245 245 246 246 245 245 246
285 285 285 285 285 285 286 285 285 285 284 284 283 282 280 279 277 275 273 273 271 268 267 266 264 261 258 256 254 251 250 248 247 246 246 246 246 245 245 245 245 245 245
285 285 285 286 286 286 287 286 286 285 284 284 283 282 281 279 277 275 273 272 270 267 265 264 262 260 256 254 253 251 249 247 247 246 246 245 245 244 244 245 245 245 245
286 285 286 287 287 287 288 287 286 286 285 285 284 283 281 278 277 275 273 271 269 266 263 262 261 258 254 252 251 249 248 247 246 246 245 244 244 244 244 244 245 246 245
287 287 287 287 288 288 288 288 287 287 286 286 285 283 281 279 277 274 272 271 268 265 262 261 260 257 254 251 250 249 247 247 247 245 244 244 245 245 245 244 244 245 244
289 289 288 288 289 289 289 288 287 287 287 286 285 283 281 279 276 273 272 270 267 264 261 260 259 257 254 250 249 248 247 246 246 245 244 244 244 244 244 244 243 244 243
290 290 290 289 289 289 289 289 288 288 287 286 284 283 281 279 275 272 272 270 267 263 261 259 258 256 253 251 249 248 247 245 245 245 244 243 243 243 242 242 242 243 243
291 291 290 290 290 289 289 289 288 288 288 286 284 282 280 278 275 273 272 270 267 264 262 259 256 255 253 251 250 249 248 245 245 244 243 243 242 242 241 241 241 242 242
291 291 292 291 291 289 289 289 289 289 288 287 285 282 279 277 276 274 272 270 267 265 262 259 256 254 253 251 251 250 248 246 245 244 243 242 241 240 239 239 239 241 240
292 292 293 293 291 290 289 289 289 289 288 287 285 282 280 278 276 275 273 270 267 265 262 260 257 254 254 253 252 251 249 248 246 244 243 241 241 240 240 240 240 241 242
292 292 293 293 292 291 290 289 289 288 288 286 284 284 282 278 276 275 273 269 265 263 262 260 256 254 254 254 253 251 249 247 246 245 244 242 241 241 241 241 241 242 243
291 292 292 292 292 291 291 291 290 289 287 285 284 285 284 280 278 276 274 269 265 263 262 260 257 255 254 254 252 250 247 246 245 245 244 243 242 242 242 241 241 241 242
291 291 291 292 292 292 292 292 291 289 287 286 285 284 284 281 280 278 275 271 267 263 261 259 257 255 254 253 252 249 247 245 244 243 244 244 243 243 242 242 241 241 242
292 291 291 291 291 292 292 292 291 290 288 286 285 284 284 283 282 279 275 271 268 263 261 258 256 255 253 252 251 249 246 244 242 242 243 243 244 243 241 241 241 242 243
293 292 291 291 291 291 291 291 291 291 289 288 287 286 285 284 283 280 276 272 268 264 262 259 257 255 253 250 249 247 246 244 242 242 242 242 242 242 242 241 241 241 242
293 293 292 291 291 291 291 292 291 290 290 289 288 287 286 286 284 281 277 273 269 266 263 260 258 255 252 250 248 247 245 243 242 241 241 241 241 241 241 241 240 240 242
293 293 292 292 292 292 292 292 292 290 289 289 289 288 287 287 285 282 278 274 269 266 263 260 257 255 252 249 247 246 244 242 241 240 240 240 240 240 240 241 240 240 241
293 292 292 292 293 293 293 293 292 291 290 290 290 290 289 287 285 283 280 275 271 266 262 259 257 254 251 249 247 246 243 242 240 239 239 240 240 241 242 242 241 241 243
294 293 292 292 293 294 294 294 293 293 292 292 292 292 290 288 286 283 280 277 273 267 262 257 255 253 251 249 247 246 244 242 241 239 239 240 240 241 242 243 242 242 243
294 294 294 294 294 294 295 296 295 295 294 294 293 292 291 290 287 284 280 277 272 266 261 257 254 253 251 249 247 246 244 241 240 239 239 240 241 241 241 241 242 242 243
295 295 295 295 295 295 296 296 296 296 296 296 295 293 291 289 286 284 281 276 271 265 261 257 254 252 251 249 247 245 243 241 239 239 239 240 241 241 241 241 241 243 243
296 297 297 297 297 297 297 297 297 297 297 297 297 295 293 290 286 283 280 276 272 266 261 257 254 252 251 250 247 245 243 241 240 240 240 240 240 240 240 240 241 241 242
Height
5602 5600 5597 5594 5591 5589 5586 5583 5580 5578 5575 5572 5569 5566 5564 5561 5559 5557 5556 5556 5556 5556 5557 5559 5560 5562 5564 5566 5568 5570 5572 5574 5578 5583 5586 5590 5594 5598 5602 5607 5612 5617 5622
5590 5587 5584 5581 5578 5575 5572 5570 5567 5564 5561 5558 5555 5552 5549 5546 5544 5543 5542 5541 5541 5541 5542 5543 5545 5546 5548 5550 5552 5554 5557 5559 5563 5567 5571 5575 5580 5584 5588 5592 5598 5602 5608
5577 5574 5571 5568 5565 5562 5559 5556 5553 5550 5547 5544 5541 5538 5535 5532 5530 5529 5528 5527 5527 5527 5527 5528 5529 5530 5533 5534 5536 5539 5541 5544 5548 5552 5557 5560 5565 5569 5573 5578 5583 5588 5593
5564 5561 5558 5555 5552 5548 5545 5542 5539 5536 5533 5530 5527 5523 5521 5518 5517 5515 5514 5513 5512 5512 5513 5513 5514 5515 5517 5519 5521 5524 5526 5529 5533 5537 5542 5546 5550 5554 5558 5564 5569 5574 5579
5552 5548 5545 5541 5538 5535 5531 5528 5525 5522 5519 5515 5512 5509 5507 5505 5503 5501 5500 5499 5499 5498 5498 5499 5499 5501 5502 5504 5507 5510 5512 5516 5519 5523 5528 5532 5535 5539 5544 5549 5554 5559 5564
5538 5535 5531 5528 5524 5521 5517 5514 5511 5507 5504 5501 5498 5495 5493 5491 5489 5487 5486 5485 5485 5485 5485 5485 5486 5487 5488 5491 5493 5496 5499 5502 5506 5510 5514 5518 5522 5526 5530 5534 5539 5544 5551
5525 5521 5518 5514 5511 5507 5504 5500 5496 5493 5489 5486 5483 5481 5479 5477 5474 5473 5471 5471 5471 5471 5471 5472 5473 5474 5475 5478 5480 5483 5486 5489 5493 5497 5501 5505 5509 5513 5517 5522 5526 5530 5536
5511 5507 5504 5500 5497 5493 5490 5486 5482 5479 5475 5472 5469 5466 5464 5462 5460 5459 5457 5457 5457 5457 5458 5459 5460 5461 5463 5465 5468 5470 5474 5477 5481 5484 5489 5493 5496 5499 5503 5508 5512 5517 5522
5498 5494 5490 5487 5484 5480 5476 5473 5469 5465 5462 5459 5455 5453 5451 5448 5446 5445 5444 5443 5444 5444 5445 5446 5447 5449 5451 5453 5456 5459 5462 5465 5468 5471 5476 5479 5483 5487 5491 5495 5499 5503 5509
5485 5481 5477 5474 5470 5467 5463 5459 5456 5452 5449 5446 5443 5440 5437 5435 5433 5432 5431 5431 5432 5432 5433 5434 5436 5437 5438 5440 5443 5447 5450 5453 5456 5459 5463 5467 5470 5474 5478 5482 5486 5491 5496
5472 5468 5465 5461 5457 5454 5450 5447 5443 5440 5437 5433 5430 5428 5425 5423 5421 5420 5420 5419 5419 5420 5421 5422 5423 5425 5426 5428 5431 5434 5437 5440 5443 5447 5450 5454 5458 5462 5466 5470 5474 5478 5483
5460 5456 5452 5448 5445 5441 5438 5434 5431 5428 5424 5421 5418 5416 5413 5412 5410 5409 5409 5408 5408 5408 5409 5410 5412 5413 5415 5417 5419 5422 5425 5428 5431 5434 5438 5442 5446 5450 5454 5458 5462 5466 5471
5448 5444 5440 5437 5433 5429 5426 5423 5420 5416 5413 5410 5407 5405 5403 5401 5400 5399 5398 5397 5397 5397 5398 5399 5400 5401 5403 5406 5408 5411 5413 5416 5420 5423 5427 5431 5435 5439 5443 5447 5450 5454 5459
5436 5433 5429 5425 5421 5418 5415 5412 5408 5405 5402 5400 5397 5395 5393 5391 5389 5388 5387 5387 5387 5387 5388 5388 5389 5391 5393 5395 5397 5400 5402 5405 5409 5413 5416 5419 5423 5427 5431 5435 5439 5443 5448
5425 5421 5418 5414 5410 5407 5404 5401 5398 5395 5392 5389 5387 5385 5383 5381 5379 5378 5376 5376 5376 5376 5377 5378 5379 5381 5383 5385 5387 5389 5392 5395 5398 5402 5405 5408 5412 5416 5420 5424 5428 5432 5436
5414 5410 5407 5403 5400 5397 5393 5390 5387 5384 5382 5379 5377 5375 5373 5371 5369 5368 5367 5366 5366 5366 5367 5368 5370 5371 5373 5375 5377 5379 5382 5384 5388 5391 5395 5398 5401 5405 5409 5413 5417 5421 5425
5403 5400 5396 5393 5390 5387 5383 5381 5378 5375 5372 5370 5367 5365 5363 5361 5360 5358 5357 5356 5356 5356 5357 5358 5360 5361 5363 5365 5366 5369 5371 5374 5377 5380 5384 5387 5391 5394 5398 5402 5405 5409 5413
5392 5389 5386 5383 5380 5377 5374 5371 5368 5366 5364 5361 5359 5356 5354 5352 5350 5349 5347 5347 5347 5347 5347 5349 5350 5351 5353 5354 5356 5358 5361 5363 5367 5370 5373 5377 5380 5383 5387 5391 5394 5398 5402
5382 5379 5376 5374 5371 5368 5365 5363 5360 5357 5355 5352 5350 5348 5345 5343 5341 5340 5338 5337 5337 5337 5338 5339 5340 5341 5343 5344 5346 5348 5351 5353 5356 5360 5363 5366 5369 5373 5376 5379 5383 5387 5390
5373 5370 5367 5365 5362 5360 5357 5354 5351 5349 5347 5344 5342 5340 5337 5335 5333 5331 5329 5328 5328 5328 5328 5329 5330 5331 5332 5334 5336 5338 5341 5343 5346 5349 5353 5356 5359 5362 5366 5369 5372 5376 5379
5364 5361 5359 5356 5354 5351 5349 5346 5343 5341 5338 5336 5334 5331 5329 5327 5324 5322 5321 5320 5319 5319 5319 5319 5320 5321 5322 5324 5326 5329 5331 5333 5336 5339 5343 5346 5349 5352 5355 5359 5362 5365 5369
5356 5353 5351 5348 5346 5343 5340 5338 5335 5332 5330 5328 5325 5323 5320 5318 5316 5314 5312 5311 5310 5310 5310 5310 5311 5312 5313 5315 5317 5319 5321 5324 5326 5329 5333 5336 5339 5342 5345 5348 5351 5354 5358
5347 5345 5342 5340 5338 5335 5332 5330 5327 5325 5322 5319 5317 5314 5312 5310 5308 5306 5304 5303 5302 5302 5302 5302 5303 5304 5305 5306 5308 5310 5312 5315 5317 5320 5323 5326 5329 5332 5335 5338 5341 5344 5347
5340 5337 5335 5332 5330 5327 5325 5322 5320 5317 5314 5311 5309 5306 5304 5302 5300 5298 5296 5295 5295 5294 5294 5294 5295 5296 5297 5299 5300 5302 5304 5306 5308 5311 5314 5317 5319 5322 5326 5328 5331 5334 5337
5332 5330 5327 5325 5322 5320 5317 5315 5312 5309 5306 5304 5301 5298 5296 5294 5292 5290 5289 5288 5287 5287 5287 5287 5288 5289 5290 5291 5292 5294 5296 5298 5300 5302 5305 5308 5311 5313 5316 5319 5322 5325 5328
5325 5323 5320 5318 5315 5312 5310 5307 5304 5301 5299 5296 5293 5291 5288 5286 5284 5283 5282 5281 5280 5280 5280 5280 5281 5282 5283 5284 5285 5287 5288 5290 5292 5295 5297 5300 5302 5305 5308 5311 5313 5316 5319